Regional Weather Roundup
Issued by NWS Sterling, VA

Home | Current Version | Previous Version | Graphics & Text | Print | Product List | Glossary On
Versions: 1 2 3 4 5 6 7 8 9 10 11 12 13 14 15 16 17 18 19 20 21 22 23 24 25 26 27
000
ASUS41 KLWX 230810
RWRLWX

REGIONAL WEATHER ROUNDUP
NATIONAL WEATHER SERVICE BALTIMORE MD/WASHINGTON DC
400 AM EDT TUE AUG 23 2016

Note: "FAIR" indicates few or no clouds below 12,000 feet
with no significant weather and/or obstructions to visibility.
 TC=TEMPERATURE CELSIUS

 * =Non NWS site. Station does not report precipitation (e.g. rain,
    snow, etc.), thunder, or fog.

DCZ001-MDZ009-015-VAZ040>042-051-053>054-230900-
WASHINGTON METRO

CITY           SKY/WX    TMP DP  RH WIND       PRES   REMARKS
WASHINGTON NAT PTCLDY    69  60  73 N6        30.26R
DULLES         PTCLDY    62  59  90 NW3       30.27R
ANDREWS AFB    CLEAR     62  58  87 CALM      30.25R
FT BELVOIR     MOCLDY    62  61  95 CALM      30.25S
QUANTICO       CLOUDY    68  62  81 E5        30.26R
COLLEGE PARK*  CLEAR     61  59  94 CALM      30.26R
LEESBURG*      CLEAR     63  61  94 N3        30.28S
MANASSAS*      CLEAR     63  63 100 CALM      30.26S
GAITHERSBURG*  PTCLDY    59  54  82 CALM      30.31S

$$

MDZ006>007-011-014-230900-
BALTIMORE METRO

CITY           SKY/WX    TMP DP  RH WIND       PRES   REMARKS
BWI AIRPORT    PTCLDY    61  58  90 CALM      30.26R
MD SCIENCE CTR   N/A     70  55  59 MISG      30.26R
MARTIN STATE   CLEAR     64  59  82 N3        30.28R
ANNAPOLIS      CLEAR     72  58  61 E5        30.25R
FORT MEADE*    CLEAR     57  55  94 CALM      30.29R

$$

MDZ012-015-019>023-230900-
MARYLAND EASTERN SHORE

CITY           SKY/WX    TMP DP  RH WIND       PRES   REMARKS
OCEAN CITY     CLEAR     71  54  54 NE9       30.24R
SALISBURY      CLEAR     62  58  86 CALM      30.24S
BAY BRIDGE AP* CLEAR     68  55  64 E5        30.26R
CAMBRIDGE*     CLEAR     63  55  77 NE3       30.25R
EASTON*        CLEAR     64  60  87 CALM      30.29S

$$

MDZ017>025-230900-
SOUTHERN MARYLAND

CITY           SKY/WX    TMP DP  RH WIND       PRES   REMARKS
PATUXENT RIVER CLEAR     71  58  63 E12       30.24R
ST INIGOES     CLEAR     70  60  70 NE5       30.24R
LEONARDTOWN*   CLEAR     64  59  82 E3        30.26S

$$

MDZ003>005-230900-
NORTH CENTRAL MARYLAND

CITY           SKY/WX    TMP DP  RH WIND       PRES   REMARKS
FREDERICK*     PTCLDY    57  57 100 CALM      30.30S
HAGERSTOWN APT CLEAR     61  54  77 CALM      30.28R

$$

MDZ501>502-230900-
WESTERN MARYLAND

CITY           SKY/WX    TMP DP  RH WIND       PRES   REMARKS
OAKLAND*       CLEAR     55  54  94 SE3       30.35S
CUMBERLAND*    CLEAR     61  59  94 N6        30.34R

$$

VAZ025>031-230900-
SHENANDOAH VALLEY

CITY           SKY/WX    TMP DP  RH WIND       PRES   REMARKS
WINCHESTER*    MOCLDY    59  55  88 CALM      30.28R
FRONT ROYAL*   PTSUNNY   57  57 100 CALM      30.28R
LURAY*         FAIR     N/A N/A N/A CALM      30.28S
NEW MARKET*    FAIR     N/A N/A N/A CALM      30.28S
STAUNTON*      CLOUDY    59  57  92 CALM      30.31R
WAYNESBORO*    PTSUNNY   61  59  92 CALM      30.30R

$$

WVZ021-048>050-054>055-230900-
EASTERN WEST VIRGINIA PANHANDLE

CITY           SKY/WX    TMP DP  RH WIND       PRES   REMARKS
MARTINSBURG    CLEAR     57  56  96 CALM      30.28R
PETERSBURG*    CLEAR     55  54  97 CALM      30.31R

$$

VAZ036>039-050-230900-
CENTRAL FOOTHILLS

CITY           SKY/WX    TMP DP  RH WIND       PRES   REMARKS
CHARLOTTESVILL PTCLDY    65  62  90 CALM      30.26R
CULPEPER*      CLOUDY    65  64  95 CALM      30.27R
ORANGE*          N/A     68  63  83 CALM      30.27S
GORDONSVILLE*  CLOUDY    64  64 100 CALM      30.25R
WARRENTON*     CLOUDY    65  57  76 NE3       30.26R HAZE

$$

VAZ055>057-230900-
NORTH AND CENTRAL PIEDMONT

CITY           SKY/WX    TMP DP  RH WIND       PRES   REMARKS
FREDERICKSBRG* CLOUDY    68  68  99 CALM      30.24R
STAFFORD*      CLOUDY    64  62  93 CALM      30.29R

$$

NCZ024-NYZ072-PAZ021-071-VAZ022-071-230900-
OTHER REGIONAL OBSERVATIONS

CITY           SKY/WX    TMP DP  RH WIND       PRES   REMARKS
NEW YORK CITY  CLEAR     64  50  60 CALM      30.28R
PHILADELPHIA   CLEAR     65  52  62 NW5       30.27R
PITTSBURGH     CLEAR     60  54  80 CALM      30.28S
ROANOKE        MOCLDY    61  57  87 CALM      30.30R
RICHMOND       PTCLDY    66  61  84 N3        30.23R
RALEIGH        MOCLDY    70  60  70 E8        30.22S

$$

ANZ530>537-230900-
MARINE OBSERVATIONS

STATION/POSITION TIME  TEMP    WIND        PRES
                       AIR SEA DIR/SP/G
                 (UTC) (F)     (DEG/KT/KT) (MB)
THOMAS PT LIGHT  0800   73 82   80/ 14/ 16 1025.7R
BALT KEY BRIDGE  0748   69      20/  6/  6 1024.7R
COVE POINT       0748   72     110/ 13/ 15 1024.7R
LEWISETTA        0748   77 82  100/ 15/ 18 1023.4R
SOLOMONS ISLAND  0748   74 84   70/ 12/ 15   N/A
PINEY POINT      0748           70/  6/  7   N/A

$$





USA.gov is the U.S. government's official web portal to all federal, state and local government web resources and services.